This is the latest recevied weather packets stored in our database for station/object KI4BSX. If no packets are shown the sender has not sent any weather packets the latest 10 day(s).
| Time | Temp. | Humidity | Pressure | Rain* | Wind** | Luminosity | Snow |
|---|---|---|---|---|---|---|---|
| 1778156798 | 17.22° C | 99% | 1013 hPa | 3.05 mm | - | - | - |
| 1778156494 | 17.78° C | 99% | 1012.8 hPa | 3.05 mm | - | - | - |
| 1778156190 | 17.78° C | 99% | 1012.8 hPa | 1.27 mm | - | - | - |
| 1778155886 | 17.78° C | 99% | 1013.1 hPa | 0 mm | - | - | - |
| 1778155583 | 17.22° C | 99% | 1012.4 hPa | 0 mm | - | - | - |
| 1778155279 | 17.22° C | 99% | 1012.1 hPa | 0 mm | - | - | - |
| 1778154976 | 17.22° C | 99% | 1012.1 hPa | 0 mm | - | - | - |
| 1778154671 | 17.22° C | 99% | 1012.1 hPa | 0 mm | - | - | - |
| 1778154368 | 17.22° C | 99% | 1012.4 hPa | 1.78 mm | - | - | - |
| 1778154065 | 17.22° C | 99% | 1013.1 hPa | 4.83 mm | - | - | - |
| 1778153762 | 17.22° C | 99% | 1013 hPa | 14.99 mm | - | - | - |
| 1778153459 | 17.22° C | 99% | 1013 hPa | 28.7 mm | - | - | - |
| 1778153157 | 17.22° C | 99% | 1013.4 hPa | 40.13 mm | - | - | - |
| 1778152853 | 17.22° C | 99% | 1014.1 hPa | 47.5 mm | - | - | - |
| 1778152550 | 17.22° C | 99% | 1013.6 hPa | 45.47 mm | - | - | - |
| 1778152247 | 17.22° C | 99% | 1013.1 hPa | 37.85 mm | - | - | - |
| 1778151943 | 17.22° C | 99% | 1012.6 hPa | 18.54 mm | - | - | - |
| 1778151640 | 17.22° C | 99% | 1012.3 hPa | 16.76 mm | - | - | - |
| 1778151337 | 17.22° C | 99% | 1012.2 hPa | 11.94 mm | - | - | - |
| 1778151033 | 17.22° C | 99% | 1012.5 hPa | 1.78 mm | - | - | - |
| 1778150731 | 17.22° C | 99% | 1012.3 hPa | 1.27 mm | - | - | - |
| 1778150427 | 17.22° C | 99% | 1012.3 hPa | 4.32 mm | - | - | - |
| 1778150123 | 17.22° C | 99% | 1012.2 hPa | 3.05 mm | - | - | - |
| 1778149820 | 17.22° C | 99% | 1012.4 hPa | 1.78 mm | - | - | - |
| 1778149517 | 17.22° C | 99% | 1012.4 hPa | 3.05 mm | - | - | - |
* Rain latest hour (hover to see other rain measurements)
** Current wind speed in m/s (hover to see current wind gust speed)